Regional Weather Roundup
Issued by NWS Wakefield, VA

Home | Current Version | Previous Version | Text Only | Print | Product List | Glossary Off
Versions: 1 2 3 4 5 6 7 8 9 10 11 12 13 14 15 16 17 18 19 20 21 22 23 24 25 26 27

000
ASUS41 KAKQ 260210
RWRAKQ

REGIONAL WEATHER ROUNDUP
NATIONAL WEATHER SERVICE WAKEFIELD VA
1000 PM EDT SAT OCT 25 2014

Note: "fair" indicates few or no clouds below 12,000 feet with no
significant weather and/or obstructions to visibility. * = Denotes
station may not report precipitation (e.g., rain,snow,etc.),
thunder or fog.

VAZ042-051-052>054-056-260300-
NORTHERN VIRGINIA

CITY           SKY/WX    TMP DP  RH WIND       PRES   REMARKS
WASH NATIONAL  CLEAR     62  43  49 SW3       29.75R
DULLES         CLEAR     56  42  59 CALM      29.74S
FORT BELVOIR   CLEAR     51  47  84 NW1       29.75R
QUANTICO       CLEAR     60  44  55 NW3       29.75S
FREDERICKSBRG* CLEAR     60  45  57 SW5       29.74S
STAFFORD*      CLEAR     57  42  57 CALM      29.79S
WARRENTON      CLEAR     58  49  71 SW3       29.75R
CULPEPER*      CLEAR     57  45  62 CALM      29.76R
MANASSAS*      CLEAR     52  46  82 CALM      29.75R
LEESBURG*      CLEAR     61  46  59 W8        29.75S
WINCHESTER     CLEAR     64  41  42 W10G16    29.74F
FRONT ROYAL*   CLEAR     64  45  48 W7        29.75R
LURAY*         CLEAR     66  46  48 SW8       29.76S
$$

VAZ048-049-060>072-079>083-260300-
CENTRAL AND SOUTH CENTRAL VIRGINIA...AND NORTH CENTRAL NORTH CAROLINA

CITY           SKY/WX    TMP DP  RH WIND       PRES   REMARKS
RICHMOND       CLEAR     59  44  57 SW8       29.78F
CHESTERFIELD*    N/A    N/A N/A N/A MISG        N/A
PETERSBURG*    CLEAR     55  45  69 S6        29.81F
HANOVER        CLEAR     59  43  55 SW7       29.79F
TAPPAHANNOCK*  CLEAR     60  40  46 S9        29.77F
CHARLOTTSVILLE CLEAR     65  45  48 SW6       29.77S
ORANGE*        CLEAR     55  45  67 CALM      29.77S
LOUISA*        CLEAR     59  46  63 SW6       29.76S
FARMVILLE*     CLEAR     52  43  71 CALM      29.80S
CREWE*         CLEAR     59  42  53 SW5       29.81F
FORT PICKETT*  CLEAR     55  45  69 SW7       29.82S
LUNENBURG*     CLEAR     58  45  61 CALM      29.82F
SOUTH HILL*    CLEAR     54  48  82 S6        29.89F
LAWRENCEVILLE* CLEAR     53  47  81 SW5       29.82F
ROANOKE RAPIDS CLEAR     50  46  87 SW3       29.85F
RALEIGH        PTCLDY    52  45  77 SW6       29.90S
$$

VAZ088>098-260300-
SOUTHEAST VIRGINIA

CITY           SKY/WX    TMP DP  RH WIND       PRES   REMARKS
NORFOLK        CLEAR     62  43  49 SW8       29.82S
VIRGINIA BEACH CLEAR     59  45  59 SW8       29.81F
NORFOLK NAVAL  CLEAR     63  45  51 SW8       29.83F
WEST POINT*    CLEAR     61  45  55 S3        29.79F
NEWPORT NEWS   CLEAR     60  47  61 SW9       29.81F
LANGLEY AFB    CLEAR     61  46  59 SW12      29.81F
FORT EUSTIS    CLEAR     59  46  61 S5        29.80F
WILLIAMSBURG*  CLEAR     63  48  59 SW7       29.81F
HR EXEC AP*    CLEAR     52  45  76 SW7       29.85F
FRANKLIN*      CLEAR     54  46  76 S3        29.83F
WAKEFIELD      CLEAR     57  46  66 S6        29.82F
$$

VAZ020-022-025-037-045-260300-
WEST CENTRAL AND SOUTHWEST VIRGINIA

CITY           SKY/WX    TMP DP  RH WIND       PRES   REMARKS
STAUNTON*      CLEAR     60  44  54 S6        29.81S
HOT SPRINGS VA CLEAR     52  46  79 W22G32    29.86F
LYNCHBURG      CLEAR     61  46  57 W6        29.86R
DANVILLE       CLEAR     53  45  74 SW3       29.88S
SOUTH BOSTON*  NOT AVBL
MARTINSVILLE   CLEAR     56  46  70 CALM      29.91F
ROANOKE        CLEAR     64  47  53 W13       29.88F
BLACKSBURG     CLEAR     57  52  82 W5        29.94S
DUBLIN*        CLEAR     61  51  70 W10       29.94S
MARION*        CLEAR     55  47  73 W12       30.01S
HILLSVILLE*    CLEAR     57  47  68 W15G22    29.95F
RICHLANDS*     CLEAR     60  26  27 W9        30.00F
WISE*          CLEAR     55  46  71 SW7       30.03R
ABINGDON*      CLEAR     55  48  80 CALM      30.02S
$$

MDZ021>025-VAZ099-100-260300-
SOUTHERN MARYLAND AND THE DELMARVA PENINSULA

CITY           SKY/WX    TMP DP  RH WIND       PRES   REMARKS
PATUXENT RIVER CLEAR     60  42  51 SW9       29.73F
BAY BRIDGE APT   N/A     61  43  51 SW6       29.72F
LEONARDTOWN    CLEAR     61  43  51 SW9       29.75F
DOVER          CLEAR     56  49  77 S9        29.69F
GEORGETOWN     CLEAR     55  46  71 S8        29.74F
EASTON         NOT AVBL
CAMBRIDGE      CLEAR     61  45  55 CALM      29.73F
SALISBURY      CLEAR     58  48  69 SW10      29.74F
OCEAN CITY     CLEAR     59  45  59 SW10      29.75F
WALLOPS ISLAND CLEAR     59  47  64 W7        29.78S
ACCOMACK*      CLEAR     61  45  55 SW12      29.78F
$$

NCZ012>017-030>032-260300-
EASTERN NORTH CAROLINA

CITY           SKY/WX    TMP DP  RH WIND       PRES   REMARKS
ELIZABETH CITY CLEAR     57  47  69 SW8       29.86R
AHOSKIE*       CLEAR     51  47  86 CALM      29.86F
EDENTON*       CLEAR     62  50  66 W7        29.87S
CURRITUCK*     CLEAR     58  46  62 SW8       29.85S
KILL DEVIL HLS CLEAR     60  51  72 SW6       29.85R
MANTEO         CLEAR     60  51  73 W8        29.86S
CAPE HATTERAS  CLEAR     63  53  70 W7        29.88S
TARBORO*       CLEAR     48  47  95 CALM      29.88F
GOLDSBORO      CLEAR     56  52  86 CALM      29.89R
WASHINGTON     CLEAR     53  49  86 CALM      29.89S
GREENVILLE     CLEAR     52  48  87 CALM      29.91R
NEW BERN       CLEAR     57  50  77 W5        29.91S
WILMINGTON     FAIR      53  50  89 CALM      29.93R
$$

VAZ048-260300-
ELSEWHERE

CITY           SKY/WX    TMP DP  RH WIND       PRES   REMARKS
HARRISBURG PA  PTCLDY    62  48  60 SW14      29.64F
BALTIMORE      CLEAR     57  42  57 W7        29.72R
ANNAPOLIS      CLEAR     59  41  51 VRB3      29.72S
ANDREWS AFB    CLEAR     59  43  55 W9        29.73S
WILMINGTON DE  CLEAR     59  42  53 SW8       29.69F
PHILADELPHIA   PTCLDY    60  45  57 SW12      29.68S
WILDWOOD NJ*   CLEAR     61  45  55 SW12      29.73S
ATLANTIC CITY  CLEAR     57  48  72 SW9       29.70S
HENDERSON NC   CLEAR     53  43  70 SW8       29.86F
GREENSBORO     CLEAR     59  39  47 SW8       29.90F
ROCKY MOUNT    CLEAR     53  47  79 S6        29.88S
FAYETTEVILLE   CLEAR     54  46  74 SW7       29.92R
CHARLOTTE      CLEAR     58  40  51 W3        29.96S
$$

VAZ100-260300-
MARINE

STATION/POSITION TIME  TEMP    WIND        PRES    WAVE   SWELL
                       AIR SEA DIR/SP/G            HT/PER HT/PER
                 (UTC) (F)     (DEG/KT/KT) (MB)    (FT/S) (FT/S)
44066 TX TWR #4  0200   64 65  240/ 21/ 25 1004.6F   5/ 5
CAPE MAY NJ      0200   61 65  220/ 14/ 19 1005.7F
LEWES DE         0200   59 60  230/ 10/ 14 1006.2F
15NM E FENWICK I 0200   64 64  230/ 19/ 23 1006.5F   3/ 4   2/10
OCEAN-CITY-INLET 0200   61 62  240/ 11/ 14 1007.0F
WACHAPREAGUE VA  0200   59 62  230/  4/  6 1008.7F
THOMAS POINT MD  0200   62 62  220/ 12/ 13 1007.5F
GOOSES REEF MD   0200   63     240/ 14/ 16 1007.1S
COVE POINT MD    0200   63     240/ 13/ 18 1006.6F
SOLOMONS ISLAND  0200      63                N/A
BISHOPS HEAD MD  0200   62 60  230/ 13/ 15 1006.6F
PINEY POINT MD   0200          230/ 13/ 14   N/A
POTOMAC MD       0200   62     240/ 16/ 17 1006.7F
CAMBRIDGE MD     0200   62 60  210/  7/  9 1006.5S
LEWISETTA VA     0200   61 60  230/ 10/ 13 1006.9F
RAPPAHANNOCK LGT 0200          220/ 17/ 19 1008.9F
STINGRAY PT      0200   62     230/ 14/ 16 1009.2F
YORK RVR RNG VA  0200   63     240/ 13/ 15 1008.4F
YORKTOWN VA      0200   62 64  220/ 10/ 13 1008.6F
JAMESTOWN VA     0200   60     250/ 10/ 12   N/A
DOMINION TERM VA 0200   62     230/ 10/ 13 1009.7F
KIPTOPEKE VA     0200      66  250/ 12/ 15   N/A
CHES BAY BRIDGE  0200   64 64  220/ 15/ 17 1008.8F
CHESAPEAKE LGHT  0100   65     240/ 16/ 18 1010.2F
WILLOUBY STN VA  0200   62     240/ 13/ 14 1008.1F
S CRANEY ISL VA  0200          190/  6/  9 1009.5F
CAPE HENRY BUOY  0200      67                N/A     2/ 3
1ST LANDING BUOY 0200   65     230/ 12/ 16 1009.3F
CAPE CHARLES BUO 0200      66                N/A     2/10   2/10
64NM E OF VA BCH 0200   66 66  230/ 16/ 17 1009.2F   2/ 9   2/ 9
DUCK PIER NC     0200   63 66  220/  9/ 12 1010.0R
44100 DUCK FRF   0200      67                N/A     3/10   2/11
44056 DUCK FRF   0200                        N/A     2/10
OREGON INLET NC  0200   63 66  230/ 13/ 15 1010.9S
HATTERAS NC      0200   65 67  250/ 11/ 15 1012.0R
DIAMOND SHLS NC  0200   68     240/ 14/ 16 1011.7F   3/10   2/10
CAPE LOOKOUT NC  0100   67     250/  9/ 10 1012.5F
$$



USA.gov is the U.S. government's official web portal to all federal, state and local government web resources and services.